This is the latest recevied weather packets stored in our database for station/object KC7UNY-13. If no packets are shown the sender has not sent any weather packets the latest 10 day(s).
| Time | Temp. | Humidity | Pressure | Rain* | Wind** | Luminosity | Snow |
|---|---|---|---|---|---|---|---|
| 1777235487 | 24.44° C | 29% | 1011 hPa | 0 mm | - | 759 W/m² | - |
| 1777235183 | 24.44° C | 29% | 1010.8 hPa | 0 mm | - | 764 W/m² | - |
| 1777234880 | 24.44° C | 29% | 1010.9 hPa | 0 mm | - | 771 W/m² | - |
| 1777234576 | 25° C | 28% | 1011 hPa | 0 mm | - | 771 W/m² | - |
| 1777234275 | 23.89° C | 29% | 1010.9 hPa | 0 mm | - | 780 W/m² | - |
| 1777233973 | 23.89° C | 30% | 1011.1 hPa | 0 mm | - | 782 W/m² | - |
| 1777233669 | 24.44° C | 29% | 1011.1 hPa | 0 mm | - | 795 W/m² | - |
| 1777233369 | 23.89° C | 30% | 1011.1 hPa | 0 mm | - | 791 W/m² | - |
| 1777233063 | 23.89° C | 30% | 1011.2 hPa | 0 mm | - | 770 W/m² | - |
| 1777232761 | 23.89° C | 30% | 1011.2 hPa | 0 mm | - | 855 W/m² | - |
| 1777232459 | 23.33° C | 31% | 1011.2 hPa | 0 mm | - | 837 W/m² | - |
| 1777232156 | 23.33° C | 30% | 1011.3 hPa | 0 mm | - | 801 W/m² | - |
| 1777231853 | 22.78° C | 31% | 1011.4 hPa | 0 mm | - | 800 W/m² | - |
| 1777231549 | 23.33° C | 30% | 1011.3 hPa | 0 mm | - | 800 W/m² | - |
| 1777231246 | 23.33° C | 30% | 1011.4 hPa | 0 mm | - | 801 W/m² | - |
| 1777230942 | 22.78° C | 31% | 1011.4 hPa | 0 mm | - | 799 W/m² | - |
| 1777230638 | 23.33° C | 30% | 1011.3 hPa | 0 mm | - | 798 W/m² | - |
| 1777230333 | 23.89° C | 30% | 1011.3 hPa | 0 mm | - | 794 W/m² | - |
| 1777230030 | 22.78° C | 33% | 1011.4 hPa | 0 mm | - | 793 W/m² | - |
| 1777229727 | 22.78° C | 31% | 1011.5 hPa | 0 mm | - | 794 W/m² | - |
| 1777229423 | 23.33° C | 31% | 1011.4 hPa | 0 mm | - | 788 W/m² | - |
| 1777229121 | 22.78° C | 31% | 1011.7 hPa | 0 mm | - | 782 W/m² | - |
| 1777228818 | 23.33° C | 31% | 1011.6 hPa | 0 mm | - | 777 W/m² | - |
| 1777228513 | 23.89° C | 31% | 1011.6 hPa | 0 mm | - | 774 W/m² | - |
| 1777228210 | 22.78° C | 32% | 1011.5 hPa | 0 mm | - | 772 W/m² | - |
* Rain latest hour (hover to see other rain measurements)
** Current wind speed in m/s (hover to see current wind gust speed)